Regional Weather Roundup
Issued by NWS New Orleans/Baton Rouge, LA

Home | Current Version | Previous Version | Text Only | Print | Product List | Glossary Off
Versions: 1 2 3 4 5 6 7 8 9 10 11 12 13 14 15 16 17 18 19 20 21 22 23 24 25 26 27 28 29 30 31 32 33 34 35 36 37 38 39 40 41 42 43 44 45 46 47 48 49 50

187
ASUS44 KLIX 260710
RWRLIX
NEW ORLEANS REGIONAL WEATHER ROUNDUP
NATIONAL WEATHER SERVICE NEW ORLEANS LA
200 AM CDT SUN OCT 26 2014

NOTE: "FAIR" INDICATES FEW OR NO CLOUDS BELOW 12,000 FEET WITH NO
      SIGNIFICANT WEATHER AND/OR OBSTRUCTIONS TO VISIBILITY.
      SKY/WX - SKY CONDITION AND SIGNIFICANT WEATHER.
      TMP - AIR TEMPERATURE.     DP    - DEWPOINT TEMPERATURE.
      RH  - RELATIVE HUMIDITY.   PRES  - PRESSURE.
      HI  - HEAT INDEX.          WCI   - WIND CHILL INDEX.

*  THESE STATIONS ARE NOT NWS OR FAA STATIONS AND ARE NOT UNDER
   NWS QUALITY CONTROL.

LAZ038-040-048-061>063-065>067-069-260800-
SOUTHEAST LOUISIANA

CITY           SKY/WX    TMP DP  RH WIND       PRES   REMARKS
N.O. AUDUBON     N/A     64  61  89 MISG        N/A
N.O. INTL ARPT CLEAR     63  59  87 CALM      30.06F
N.O. LAKEFRONT CLEAR     70  61  73 N8        30.06F
N.O. DOWNTOWN*   N/A     70  57  64 CALM      30.06F
SLIDELL        CLEAR     57  53  86 CALM      30.05F
BATON ROUGE    CLEAR     56  54  93 CALM      30.06F
BOOTHVILLE     CLEAR     66  63  90 CALM      30.05F
BELLE CHASSE   CLEAR     57  53  86 CALM      30.05F
BOGALUSA*        N/A     56  53  89 CALM      30.07F
NEW ROADS*       N/A     55  54  97 CALM      30.07S
GONZALES*        N/A     56  56 100 CALM      30.06S
HAMMOND*       CLEAR     57  54  88 CALM      30.07F
HOUMA*         CLEAR     55  55  98 CALM      30.06F FOG
PORT FOURCHON* SUNNY     68  61  77 NW6       30.09S

$$

MSZ070-080>082-260800-
SOUTHERN MISSISSIPPI

CITY           SKY/WX    TMP DP  RH WIND       PRES   REMARKS
MCCOMB         CLEAR     56  53  90 CALM      30.07F
GULFPORT       CLEAR     59  57  93 CALM      30.05S
BILOXI         CLEAR     62  61  94 N3        30.05S
PASCAGOULA     CLEAR     53  53 100 CALM      30.05S FOG

$$

COASTAL OBSERVATIONS
LAKE AND NEARSHORE STATIONS

STATION/POSITION TIME  TEMP    WIND        PRES    WAVE
                       AIR SEA DIR/SP/G            HT/PER
                 (UTC) (F)     (DEG/KT/KT) (MB)    (FT/S)
PASCAGOULA       0700   63     330/  5/  6 1016.8
WAVELAND YACHT   0700   64     330/  2/  3 1016.8
GRAND ISLE       0700   70 72  320/  5/  7 1018.1
SOUTHWEST PASS   0700   71 80              1017.8
NEW CANAL        0700   71 70   CALM  /  2 1018.2
SHELL BEACH      0700   70 68  300/  5/  6 1017.5

OFFSHORE STATIONS

STATION/POSITION TIME  TEMP    WIND        PRES    WAVE
                       AIR SEA DIR/SP/G            HT/PER
                 (UTC) (F)     (DEG/KT/KT) (MB)    (FT/S)
64 S DAUPHIN ISL 0556   74 78  350/  8/ 12 1017.8    2/ 4

$$




USA.gov is the U.S. government's official web portal to all federal, state and local government web resources and services.